DAL1426 KATL-TGPY

Flight info

Callsign DAL1426
Flight time N/A
Altitude 37000
Route VRSTY3 NOKIE DCT YANTI Q89 MANLE Y185 RENAH Y355 FIPEK Y294 GESSO DCT GEECE DCT
Aircraft A21N/M-SDE2E3FGHIRWXY/LB1

Departure

Time N/A
Airport Hartsfield Jackson Atlanta International Airport (KATL)

Arrival

Time 2026-05-04 23:53
Airport Maurice Bishop International Airport (TGPY)
Time Latitude Longitude Altitude Speed Heading
2026-05-04 20:15 31.93965 -82.98915 36777 ft 492 kts 150°
2026-05-04 20:16 31.91210 -82.96528 36944 ft 492 kts 151°
2026-05-04 20:16 31.88454 -82.94145 37092 ft 493 kts 151°
2026-05-04 20:16 31.85677 -82.91746 37083 ft 495 kts 151°
2026-05-04 20:17 31.80128 -82.86949 37085 ft 495 kts 151°
2026-05-04 20:17 31.74739 -82.81945 37080 ft 498 kts 148°
2026-05-04 20:18 31.69361 -82.76817 37075 ft 497 kts 148°
2026-05-04 20:18 31.63999 -82.71723 37093 ft 495 kts 148°
2026-05-04 20:19 31.58654 -82.66658 37047 ft 487 kts 148°
2026-05-04 20:19 31.53486 -82.61761 37053 ft 469 kts 149°
2026-05-04 20:20 31.48502 -82.57049 37063 ft 452 kts 149°
2026-05-04 20:20 31.43685 -82.52507 37058 ft 438 kts 150°
2026-05-04 20:21 31.38916 -82.48024 37077 ft 442 kts 150°
2026-05-04 20:21 31.31653 -82.41199 37083 ft 451 kts 149°
2026-05-04 20:22 31.26729 -82.36578 37053 ft 457 kts 149°
2026-05-04 20:22 31.21739 -82.31901 37082 ft 463 kts 149°
2026-05-04 20:23 31.16666 -82.27154 37091 ft 471 kts 149°
2026-05-04 20:23 31.11502 -82.22325 37105 ft 480 kts 149°
2026-05-04 20:24 31.06239 -82.17413 37115 ft 489 kts 149°
2026-05-04 20:24 31.00901 -82.12436 37136 ft 497 kts 149°
2026-05-04 20:25 30.96415 -82.08250 37093 ft 492 kts 149°
2026-05-04 20:25 30.91062 -82.03276 37126 ft 492 kts 149°
2026-05-04 20:26 30.85708 -81.98306 37132 ft 492 kts 149°
2026-05-04 20:26 30.80357 -81.93345 37124 ft 492 kts 149°
2026-05-04 20:27 30.75004 -81.88391 37131 ft 492 kts 149°
2026-05-04 20:27 30.69649 -81.83440 37079 ft 491 kts 148°
2026-05-04 20:28 30.64299 -81.78503 37093 ft 491 kts 148°
2026-05-04 20:28 30.58832 -81.73805 37091 ft 487 kts 153°
2026-05-04 20:29 30.53258 -81.69347 37087 ft 487 kts 153°
2026-05-04 20:29 30.47690 -81.64873 37090 ft 486 kts 153°
2026-05-04 20:30 30.42151 -81.60415 37092 ft 484 kts 153°
2026-05-04 20:30 30.36615 -81.55967 37110 ft 485 kts 153°
2026-05-04 20:31 30.31075 -81.51521 37111 ft 485 kts 153°
2026-05-04 20:31 30.25534 -81.47083 37110 ft 484 kts 153°
2026-05-04 20:32 30.19995 -81.42651 37116 ft 484 kts 153°
2026-05-04 20:32 30.14451 -81.38221 37119 ft 484 kts 153°
2026-05-04 20:33 30.08947 -81.33826 37082 ft 485 kts 153°
2026-05-04 20:33 30.03403 -81.29408 37113 ft 483 kts 153°
2026-05-04 20:34 29.97876 -81.25013 37127 ft 481 kts 153°
2026-05-04 20:34 29.92359 -81.20630 37119 ft 482 kts 153°
2026-05-04 20:35 29.86839 -81.16251 37116 ft 481 kts 153°
2026-05-04 20:35 29.81250 -81.12047 37074 ft 473 kts 161°
2026-05-04 20:36 29.75232 -81.09087 37103 ft 467 kts 166°
2026-05-04 20:36 29.69220 -81.06290 37110 ft 467 kts 166°
2026-05-04 20:37 29.63211 -81.03459 37103 ft 467 kts 166°
2026-05-04 20:37 29.57204 -81.00624 37103 ft 466 kts 166°
2026-05-04 20:38 29.51192 -80.97792 37062 ft 467 kts 165°
2026-05-04 20:38 29.45194 -80.94966 37106 ft 464 kts 165°
2026-05-04 20:39 29.39210 -80.92150 37119 ft 465 kts 166°
2026-05-04 20:39 29.33232 -80.89344 37121 ft 463 kts 166°
2026-05-04 20:40 29.27266 -80.86547 37106 ft 463 kts 166°
2026-05-04 20:40 29.21298 -80.83753 37079 ft 463 kts 166°
2026-05-04 20:41 29.15340 -80.80966 37104 ft 462 kts 166°
2026-05-04 20:41 29.09387 -80.78185 37109 ft 462 kts 166°
2026-05-04 20:42 29.03432 -80.75404 37107 ft 462 kts 166°
2026-05-04 20:42 28.97476 -80.72627 37105 ft 462 kts 166°
2026-05-04 20:43 28.91524 -80.69856 37056 ft 462 kts 165°
2026-05-04 20:43 28.85944 -80.66010 37086 ft 484 kts 144°
2026-05-04 20:44 28.83673 -80.63114 37092 ft 493 kts 133°
2026-05-04 20:44 28.81733 -80.59870 37092 ft 496 kts 128°
2026-05-04 20:44 28.78044 -80.53282 37074 ft 496 kts 129°
2026-05-04 20:45 28.74255 -80.46725 37073 ft 495 kts 129°
2026-05-04 20:45 28.70431 -80.40204 37065 ft 495 kts 129°
2026-05-04 20:46 28.66577 -80.33710 37060 ft 494 kts 130°
2026-05-04 20:46 28.62721 -80.27226 37061 ft 494 kts 130°
2026-05-04 20:47 28.58866 -80.20747 37040 ft 495 kts 130°
2026-05-04 20:47 28.55011 -80.14269 37055 ft 494 kts 130°
2026-05-04 20:48 28.51162 -80.07802 37062 ft 493 kts 130°
2026-05-04 20:48 28.47313 -80.01344 37066 ft 493 kts 130°
2026-05-04 20:49 28.43454 -79.94895 37066 ft 493 kts 130°
2026-05-04 20:49 28.39599 -79.88452 37063 ft 493 kts 130°
2026-05-04 20:50 28.35740 -79.82015 37062 ft 493 kts 131°
2026-05-04 20:50 28.31868 -79.75581 37060 ft 494 kts 131°
2026-05-04 20:51 28.28001 -79.69148 37062 ft 494 kts 131°
2026-05-04 20:51 28.24126 -79.62720 37044 ft 493 kts 131°
2026-05-04 20:52 28.20259 -79.56313 37056 ft 492 kts 131°
2026-05-04 20:52 28.16419 -79.49953 37062 ft 492 kts 131°
2026-05-04 20:53 28.12523 -79.43514 37051 ft 492 kts 131°
2026-05-04 20:53 28.08665 -79.37150 37048 ft 494 kts 131°
2026-05-04 20:54 28.04778 -79.30747 37050 ft 493 kts 131°
2026-05-04 20:54 28.00888 -79.24349 37052 ft 493 kts 131°
2026-05-04 20:55 27.96994 -79.17954 37053 ft 493 kts 131°
2026-05-04 20:55 27.93099 -79.11569 37016 ft 494 kts 131°
2026-05-04 20:56 27.89202 -79.05166 37042 ft 494 kts 131°
2026-05-04 20:56 27.85300 -78.98775 37045 ft 494 kts 131°
2026-05-04 20:57 27.81397 -78.92382 37040 ft 494 kts 131°
2026-05-04 20:57 27.77495 -78.85996 37040 ft 494 kts 132°
2026-05-04 20:58 27.73582 -78.79627 37042 ft 494 kts 132°
2026-05-04 20:58 27.69659 -78.73267 37033 ft 494 kts 132°
2026-05-04 20:59 27.65768 -78.66945 37024 ft 494 kts 132°
2026-05-04 20:59 27.61906 -78.60454 37035 ft 495 kts 130°
2026-05-04 21:00 27.58146 -78.54005 37000 ft 494 kts 130°
2026-05-04 21:00 27.54364 -78.47542 37033 ft 494 kts 130°
2026-05-04 21:01 27.50587 -78.41080 37032 ft 494 kts 130°
2026-05-04 21:01 27.46804 -78.34616 37032 ft 494 kts 130°
2026-05-04 21:02 27.43019 -78.28164 37032 ft 494 kts 130°
2026-05-04 21:02 27.39230 -78.21717 37032 ft 494 kts 130°
2026-05-04 21:03 27.35438 -78.15275 37032 ft 494 kts 130°
2026-05-04 21:03 27.31646 -78.08840 37030 ft 494 kts 130°
2026-05-04 21:04 27.27849 -78.02407 37030 ft 493 kts 130°
2026-05-04 21:04 27.24050 -77.95981 37030 ft 494 kts 130°
2026-05-04 21:05 27.20249 -77.89557 37029 ft 494 kts 131°
2026-05-04 21:05 27.16447 -77.83142 37024 ft 494 kts 131°
2026-05-04 21:06 27.12663 -77.76767 37023 ft 494 kts 131°
2026-05-04 21:06 27.08853 -77.70360 37024 ft 493 kts 131°
2026-05-04 21:07 27.05039 -77.63952 37024 ft 493 kts 131°
2026-05-04 21:07 27.01223 -77.57555 37020 ft 493 kts 131°
2026-05-04 21:08 26.97450 -77.51114 37021 ft 494 kts 130°
2026-05-04 21:08 26.93701 -77.44654 37021 ft 494 kts 130°
2026-05-04 21:09 26.89940 -77.38203 36980 ft 495 kts 130°
2026-05-04 21:09 26.86170 -77.31754 37004 ft 495 kts 130°
2026-05-04 21:10 26.82397 -77.25311 37010 ft 495 kts 130°
2026-05-04 21:10 26.78627 -77.18884 37001 ft 493 kts 130°
2026-05-04 21:11 26.74858 -77.12465 37005 ft 493 kts 130°
2026-05-04 21:11 26.71085 -77.06047 37006 ft 493 kts 130°
2026-05-04 21:12 26.67315 -76.99641 37007 ft 493 kts 130°
2026-05-04 21:12 26.63537 -76.93233 37004 ft 493 kts 130°
2026-05-04 21:13 26.59762 -76.86836 37001 ft 493 kts 130°
2026-05-04 21:13 26.55981 -76.80444 36995 ft 493 kts 130°
2026-05-04 21:14 26.52830 -76.75124 36985 ft 495 kts 130°
2026-05-04 21:14 26.49037 -76.68721 36993 ft 494 kts 130°
2026-05-04 21:15 26.44624 -76.61289 36991 ft 494 kts 130°
2026-05-04 21:15 26.41442 -76.55938 36991 ft 494 kts 130°
2026-05-04 21:16 26.37639 -76.49552 36979 ft 495 kts 131°
2026-05-04 21:16 26.33829 -76.43158 36986 ft 495 kts 131°
2026-05-04 21:17 26.30013 -76.36768 36987 ft 495 kts 131°
2026-05-04 21:17 26.26198 -76.30388 36985 ft 495 kts 131°
2026-05-04 21:18 26.22379 -76.24007 36984 ft 495 kts 131°
2026-05-04 21:18 26.18557 -76.17632 36952 ft 497 kts 131°
2026-05-04 21:19 26.14710 -76.11220 36967 ft 497 kts 131°
2026-05-04 21:19 26.10858 -76.04822 36983 ft 498 kts 131°
2026-05-04 21:20 26.07009 -75.98424 36987 ft 497 kts 131°
2026-05-04 21:20 26.03158 -75.92032 36973 ft 497 kts 131°
2026-05-04 21:21 25.99305 -75.85647 36977 ft 497 kts 131°
2026-05-04 21:21 25.95442 -75.79263 36988 ft 497 kts 131°
2026-05-04 21:22 25.91575 -75.72880 36982 ft 498 kts 131°
2026-05-04 21:22 25.87708 -75.66496 36981 ft 498 kts 131°
2026-05-04 21:23 25.83864 -75.60162 36952 ft 498 kts 131°
2026-05-04 21:23 25.79976 -75.53771 36970 ft 500 kts 131°
2026-05-04 21:24 25.76088 -75.47383 36975 ft 500 kts 131°
2026-05-04 21:24 25.72198 -75.40996 36963 ft 499 kts 131°
2026-05-04 21:25 25.68301 -75.34622 36977 ft 499 kts 131°
2026-05-04 21:25 25.64404 -75.28250 36979 ft 499 kts 131°
2026-05-04 21:26 25.60504 -75.21887 36976 ft 499 kts 131°
2026-05-04 21:26 25.56603 -75.15521 36976 ft 499 kts 131°
2026-05-04 21:27 25.52699 -75.09164 36976 ft 499 kts 131°
2026-05-04 21:27 25.48799 -75.02814 36971 ft 498 kts 131°
2026-05-04 21:28 25.44891 -74.96462 36972 ft 500 kts 131°
2026-05-04 21:28 25.40982 -74.90123 36976 ft 499 kts 131°
2026-05-04 21:29 25.37073 -74.83789 36979 ft 498 kts 131°
2026-05-04 21:29 25.33168 -74.77454 36980 ft 499 kts 131°
2026-05-04 21:30 25.29259 -74.71121 36981 ft 498 kts 131°
2026-05-04 21:30 25.25345 -74.64801 36982 ft 498 kts 131°
2026-05-04 21:31 25.19466 -74.55333 36977 ft 498 kts 131°
2026-05-04 21:32 25.15546 -74.49027 36980 ft 498 kts 131°
2026-05-04 21:32 25.11624 -74.42721 36940 ft 498 kts 131°
2026-05-04 21:33 25.07672 -74.36385 36977 ft 503 kts 131°
2026-05-04 21:33 25.03749 -74.30089 36981 ft 500 kts 131°
2026-05-04 21:34 24.99802 -74.23770 36986 ft 500 kts 131°
2026-05-04 21:34 24.95849 -74.17460 36989 ft 500 kts 131°
2026-05-04 21:35 24.91896 -74.11150 36984 ft 501 kts 131°
2026-05-04 21:35 24.87936 -74.04837 36983 ft 501 kts 131°
2026-05-04 21:36 24.83982 -73.98537 36980 ft 499 kts 131°
2026-05-04 21:36 24.80036 -73.92261 36987 ft 499 kts 131°
2026-05-04 21:37 24.76087 -73.85994 36991 ft 499 kts 131°
2026-05-04 21:37 24.72132 -73.79723 36968 ft 499 kts 131°
2026-05-04 21:38 24.68176 -73.73458 36984 ft 499 kts 131°
2026-05-04 21:38 24.64215 -73.67197 36987 ft 499 kts 131°
2026-05-04 21:39 24.60249 -73.60930 36984 ft 500 kts 131°
2026-05-04 21:39 24.56318 -73.54622 36996 ft 503 kts 128°
2026-05-04 21:40 24.52732 -73.48014 36988 ft 504 kts 127°
2026-05-04 21:40 24.49161 -73.41389 36990 ft 504 kts 127°
2026-05-04 21:41 24.45585 -73.34766 36988 ft 504 kts 127°
2026-05-04 21:41 24.42007 -73.28158 36981 ft 504 kts 127°
2026-05-04 21:42 24.38422 -73.21550 36989 ft 504 kts 127°
2026-05-04 21:42 24.34844 -73.14967 36978 ft 507 kts 127°
2026-05-04 21:43 24.31237 -73.08326 36992 ft 507 kts 127°
2026-05-04 21:43 24.27623 -73.01690 36993 ft 507 kts 127°
2026-05-04 21:44 24.24005 -72.95060 36979 ft 507 kts 127°
2026-05-04 21:44 24.20392 -72.88446 36988 ft 506 kts 127°
2026-05-04 21:45 24.16776 -72.81833 36992 ft 506 kts 127°
2026-05-04 21:45 24.13158 -72.75229 36996 ft 506 kts 127°
2026-05-04 21:46 24.09543 -72.68629 36996 ft 506 kts 127°
2026-05-04 21:46 24.05918 -72.62033 36995 ft 506 kts 127°
2026-05-04 21:47 24.02301 -72.55446 36996 ft 505 kts 127°
2026-05-04 21:47 23.98678 -72.48870 37001 ft 505 kts 127°
2026-05-04 21:48 23.95060 -72.42303 36998 ft 504 kts 127°
2026-05-04 21:48 23.91441 -72.35746 37003 ft 504 kts 127°
2026-05-04 21:49 23.87818 -72.29191 37001 ft 504 kts 127°
2026-05-04 21:49 23.84193 -72.22646 36998 ft 504 kts 127°
2026-05-04 21:50 23.80561 -72.16091 37002 ft 504 kts 127°
2026-05-04 21:50 23.76927 -72.09547 37003 ft 504 kts 127°
2026-05-04 21:51 23.73292 -72.03002 37007 ft 504 kts 127°
2026-05-04 21:51 23.69653 -71.96460 37008 ft 504 kts 127°
2026-05-04 21:52 23.66016 -71.89926 37001 ft 504 kts 127°
2026-05-04 21:52 23.62368 -71.83390 37008 ft 504 kts 127°
2026-05-04 21:53 23.58419 -71.77131 37009 ft 499 kts 133°
2026-05-04 21:53 23.54226 -71.71096 37009 ft 499 kts 133°
2026-05-04 21:54 23.50064 -71.65101 37006 ft 499 kts 133°
2026-05-04 21:54 23.45877 -71.59064 37009 ft 499 kts 133°
2026-05-04 21:55 23.41689 -71.53030 37004 ft 499 kts 133°
2026-05-04 21:55 23.37498 -71.47008 37005 ft 499 kts 133°
2026-05-04 21:56 23.33302 -71.40981 37005 ft 499 kts 133°
2026-05-04 21:56 23.29110 -71.34964 37009 ft 499 kts 133°
2026-05-04 21:57 23.24908 -71.28951 37014 ft 499 kts 133°
2026-05-04 21:57 23.20700 -71.22928 37005 ft 501 kts 133°
2026-05-04 21:58 23.16489 -71.16905 37010 ft 501 kts 133°
2026-05-04 21:58 23.12271 -71.10880 37013 ft 501 kts 133°
2026-05-04 21:59 23.08048 -71.04861 37014 ft 501 kts 133°
2026-05-04 21:59 23.03828 -70.98847 37018 ft 501 kts 133°
2026-05-04 22:00 22.99603 -70.92838 37019 ft 501 kts 133°
2026-05-04 22:00 22.95380 -70.86834 37018 ft 501 kts 133°
2026-05-04 22:01 22.91151 -70.80831 37023 ft 501 kts 133°
2026-05-04 22:01 22.87627 -70.75852 37020 ft 501 kts 133°
2026-05-04 22:02 22.83397 -70.69875 37012 ft 499 kts 133°
2026-05-04 22:02 22.79170 -70.63907 37021 ft 499 kts 133°
2026-05-04 22:03 22.74941 -70.57950 37024 ft 499 kts 133°
2026-05-04 22:03 22.70715 -70.51995 37018 ft 498 kts 133°
2026-05-04 22:04 22.66492 -70.46049 37024 ft 498 kts 133°
2026-05-04 22:04 22.62265 -70.40108 37024 ft 498 kts 133°
2026-05-04 22:05 22.58032 -70.34169 37024 ft 498 kts 133°
2026-05-04 22:05 22.53801 -70.28239 37024 ft 498 kts 133°
2026-05-04 22:06 22.49568 -70.22311 37024 ft 498 kts 133°
2026-05-04 22:06 22.45344 -70.16399 37017 ft 495 kts 132°
2026-05-04 22:07 22.41130 -70.10514 37023 ft 495 kts 132°
2026-05-04 22:07 22.36911 -70.04630 37023 ft 495 kts 132°
2026-05-04 22:08 22.32690 -69.98752 37024 ft 495 kts 133°
2026-05-04 22:08 22.28468 -69.92879 37023 ft 495 kts 133°
2026-05-04 22:09 22.24248 -69.87005 37023 ft 495 kts 132°
2026-05-04 22:09 22.20031 -69.81142 37022 ft 494 kts 132°
2026-05-04 22:10 22.15813 -69.75287 37026 ft 494 kts 132°
2026-05-04 22:10 22.11594 -69.69436 37009 ft 494 kts 132°
2026-05-04 22:11 22.07378 -69.63596 37023 ft 493 kts 132°
2026-05-04 22:11 22.03166 -69.57771 37023 ft 493 kts 132°
2026-05-04 22:12 21.98954 -69.51950 37016 ft 493 kts 132°
2026-05-04 22:12 21.94738 -69.46131 37028 ft 492 kts 132°
2026-05-04 22:13 21.90522 -69.40318 37020 ft 492 kts 132°
2026-05-04 22:13 21.86305 -69.34509 37019 ft 492 kts 132°
2026-05-04 22:14 21.82085 -69.28702 37036 ft 492 kts 132°
2026-05-04 22:14 21.77894 -69.22939 37028 ft 492 kts 132°
2026-05-04 22:15 21.73673 -69.17143 37002 ft 491 kts 131°
2026-05-04 22:15 21.69470 -69.11374 37024 ft 490 kts 132°
2026-05-04 22:16 21.65258 -69.05607 37026 ft 490 kts 132°
2026-05-04 22:16 21.61049 -68.99847 37026 ft 490 kts 132°
2026-05-04 22:17 21.56845 -68.94093 37023 ft 490 kts 132°
2026-05-04 22:17 21.52634 -68.88339 37029 ft 490 kts 132°
2026-05-04 22:18 21.48421 -68.82592 37029 ft 489 kts 131°
2026-05-04 22:18 21.44211 -68.76856 37033 ft 489 kts 131°
2026-05-04 22:19 21.40004 -68.71125 37032 ft 489 kts 131°
2026-05-04 22:19 21.35792 -68.65395 37023 ft 489 kts 131°
2026-05-04 22:20 21.31585 -68.59679 37034 ft 488 kts 131°
2026-05-04 22:20 21.27377 -68.53965 37034 ft 488 kts 131°
2026-05-04 22:21 21.23163 -68.48254 37030 ft 488 kts 131°
2026-05-04 22:21 21.18948 -68.42545 37036 ft 488 kts 131°
2026-05-04 22:22 21.14731 -68.36842 37036 ft 488 kts 131°
2026-05-04 22:22 21.10514 -68.31140 37035 ft 488 kts 131°
2026-05-04 22:23 21.06296 -68.25443 37035 ft 488 kts 131°
2026-05-04 22:23 21.02076 -68.19751 37038 ft 488 kts 131°
2026-05-04 22:24 20.97852 -68.14057 37029 ft 488 kts 131°
2026-05-04 22:24 20.93630 -68.08372 37038 ft 488 kts 131°
2026-05-04 22:25 20.89405 -68.02692 37040 ft 488 kts 131°
2026-05-04 22:25 20.84780 -67.97472 37036 ft 480 kts 148°
2026-05-04 22:26 20.79190 -67.93640 37035 ft 477 kts 153°
2026-05-04 22:26 20.73547 -67.89920 37041 ft 477 kts 152°
2026-05-04 22:27 20.67920 -67.86160 37044 ft 477 kts 152°
2026-05-04 22:27 20.62336 -67.82424 37029 ft 477 kts 152°
2026-05-04 22:28 20.56717 -67.78666 37041 ft 476 kts 152°
2026-05-04 22:28 20.51097 -67.74911 37042 ft 477 kts 152°
2026-05-04 22:29 20.45478 -67.71159 37035 ft 477 kts 152°
2026-05-04 22:29 20.39857 -67.67412 37040 ft 476 kts 152°
2026-05-04 22:30 20.34235 -67.63668 37041 ft 477 kts 152°
2026-05-04 22:30 20.28611 -67.59925 37043 ft 476 kts 152°
2026-05-04 22:31 20.22998 -67.56189 37035 ft 476 kts 152°
2026-05-04 22:31 20.17378 -67.52456 37041 ft 477 kts 152°
2026-05-04 22:32 20.11751 -67.48719 37042 ft 477 kts 152°
2026-05-04 22:32 20.06116 -67.44986 37048 ft 477 kts 152°
2026-05-04 22:33 20.00478 -67.41266 37048 ft 477 kts 152°
2026-05-04 22:33 19.94852 -67.37537 37042 ft 477 kts 152°
2026-05-04 22:34 19.89229 -67.33808 37044 ft 476 kts 152°
2026-05-04 22:34 19.83608 -67.30093 37043 ft 476 kts 152°
2026-05-04 22:35 19.77981 -67.26379 37036 ft 476 kts 152°
2026-05-04 22:35 19.72352 -67.22667 37038 ft 476 kts 152°
2026-05-04 22:36 19.66712 -67.18969 37039 ft 477 kts 152°
2026-05-04 22:36 19.61072 -67.15256 37029 ft 477 kts 152°
2026-05-04 22:37 19.55438 -67.11546 37043 ft 477 kts 151°
2026-05-04 22:37 19.49804 -67.07837 37043 ft 477 kts 151°
2026-05-04 22:38 19.44168 -67.04129 37044 ft 477 kts 151°
2026-05-04 22:38 19.38532 -67.00426 37036 ft 477 kts 151°
2026-05-04 22:39 19.32893 -66.96724 37036 ft 477 kts 151°
2026-05-04 22:39 19.27293 -66.93053 37040 ft 477 kts 152°
2026-05-04 22:40 19.21655 -66.89357 37035 ft 477 kts 151°
2026-05-04 22:40 19.16014 -66.85662 37038 ft 477 kts 151°
2026-05-04 22:41 19.10363 -66.81967 37036 ft 477 kts 151°
2026-05-04 22:41 19.04709 -66.78274 37030 ft 477 kts 151°
2026-05-04 22:42 18.99063 -66.74587 37031 ft 477 kts 151°
2026-05-04 22:42 18.93410 -66.70897 37027 ft 477 kts 151°
2026-05-04 22:43 18.87762 -66.67216 37017 ft 477 kts 151°
2026-05-04 22:43 18.82116 -66.63540 37019 ft 477 kts 151°
2026-05-04 22:44 18.76466 -66.59866 37018 ft 477 kts 151°
2026-05-04 22:44 18.70820 -66.56192 37016 ft 477 kts 150°
2026-05-04 22:45 18.65170 -66.52510 37027 ft 477 kts 150°
2026-05-04 22:45 18.56692 -66.47002 37022 ft 477 kts 150°
2026-05-04 22:46 18.51046 -66.43339 37039 ft 476 kts 150°
2026-05-04 22:46 18.45399 -66.39677 37038 ft 477 kts 150°
2026-05-04 22:47 18.39749 -66.36022 37035 ft 477 kts 150°
2026-05-04 22:47 18.35054 -66.32987 37043 ft 476 kts 150°
2026-05-04 22:48 18.29409 -66.29336 37042 ft 476 kts 150°
2026-05-04 22:48 18.23763 -66.25683 37052 ft 476 kts 150°
2026-05-04 22:49 18.18114 -66.22040 37055 ft 477 kts 150°
2026-05-04 22:49 18.12461 -66.18393 37057 ft 477 kts 150°
2026-05-04 22:50 18.06811 -66.14750 37056 ft 477 kts 150°
2026-05-04 22:50 18.01152 -66.11105 37051 ft 477 kts 150°
2026-05-04 22:51 17.95502 -66.07470 37047 ft 476 kts 150°
2026-05-04 22:51 17.89846 -66.03836 37047 ft 477 kts 150°
2026-05-04 22:52 17.84195 -66.00203 37045 ft 476 kts 150°
2026-05-04 22:52 17.78544 -65.96577 37047 ft 476 kts 150°
2026-05-04 22:53 17.72891 -65.92947 37043 ft 476 kts 150°
2026-05-04 22:53 17.67236 -65.89318 37041 ft 477 kts 150°
2026-05-04 22:54 17.61572 -65.85693 37040 ft 476 kts 150°
2026-05-04 22:54 17.55917 -65.82071 37043 ft 476 kts 150°
2026-05-04 22:55 17.50290 -65.78420 37037 ft 476 kts 146°
2026-05-04 22:55 17.45344 -65.73802 37039 ft 477 kts 136°
2026-05-04 22:56 17.40650 -65.68889 37037 ft 478 kts 136°
2026-05-04 22:56 17.35926 -65.63995 37031 ft 477 kts 136°
2026-05-04 22:57 17.31224 -65.59150 37031 ft 478 kts 136°
2026-05-04 22:57 17.26483 -65.54276 37038 ft 478 kts 136°
2026-05-04 22:58 17.21740 -65.49401 37033 ft 478 kts 136°
2026-05-04 22:58 17.16998 -65.44524 37030 ft 478 kts 136°
2026-05-04 22:59 17.12262 -65.39656 37032 ft 477 kts 136°
2026-05-04 22:59 17.07528 -65.34795 37030 ft 477 kts 136°
2026-05-04 23:00 17.02791 -65.29934 37034 ft 477 kts 136°
2026-05-04 23:00 16.98044 -65.25064 37036 ft 479 kts 136°
2026-05-04 23:01 16.93291 -65.20197 37032 ft 478 kts 136°
2026-05-04 23:01 16.88538 -65.15334 37033 ft 478 kts 136°
2026-05-04 23:02 16.83788 -65.10464 37033 ft 479 kts 136°
2026-05-04 23:02 16.79051 -65.05608 37022 ft 474 kts 136°
2026-05-04 23:03 16.74332 -65.00788 37029 ft 475 kts 136°
2026-05-04 23:03 16.69616 -64.95974 37032 ft 474 kts 135°
2026-05-04 23:04 16.64895 -64.91159 37032 ft 475 kts 135°
2026-05-04 23:04 16.60174 -64.86352 37032 ft 474 kts 136°
2026-05-04 23:05 16.55455 -64.81540 37035 ft 475 kts 135°
2026-05-04 23:05 16.50735 -64.76730 37033 ft 475 kts 136°
2026-05-04 23:06 16.46010 -64.71924 37032 ft 474 kts 136°
2026-05-04 23:06 16.41285 -64.67125 37033 ft 475 kts 136°
2026-05-04 23:07 16.36564 -64.62323 37032 ft 475 kts 136°
2026-05-04 23:07 16.31835 -64.57526 37033 ft 474 kts 136°
2026-05-04 23:08 16.27104 -64.52729 37032 ft 475 kts 136°
2026-05-04 23:08 16.22374 -64.47934 37033 ft 475 kts 136°
2026-05-04 23:09 16.17643 -64.43143 37033 ft 475 kts 136°
2026-05-04 23:09 16.12914 -64.38355 37033 ft 475 kts 136°
2026-05-04 23:10 16.08180 -64.33567 37037 ft 474 kts 135°
2026-05-04 23:10 16.03459 -64.28798 37035 ft 473 kts 135°
2026-05-04 23:11 15.98737 -64.24029 37036 ft 473 kts 135°
2026-05-04 23:11 15.94022 -64.19267 37032 ft 473 kts 135°
2026-05-04 23:12 15.89327 -64.14530 37032 ft 473 kts 135°
2026-05-04 23:12 15.84606 -64.09772 37035 ft 473 kts 135°
2026-05-04 23:13 15.79879 -64.05017 37035 ft 473 kts 135°
2026-05-04 23:13 15.75151 -64.00252 37030 ft 474 kts 135°
2026-05-04 23:14 15.70424 -63.95495 37029 ft 472 kts 135°
2026-05-04 23:14 15.65710 -63.90758 37029 ft 472 kts 135°
2026-05-04 23:15 15.60990 -63.86017 37030 ft 472 kts 135°
2026-05-04 23:15 15.56276 -63.81286 37030 ft 471 kts 135°
2026-05-04 23:16 15.51561 -63.76556 37029 ft 472 kts 135°
2026-05-04 23:16 15.46847 -63.71830 37032 ft 472 kts 135°
2026-05-04 23:17 15.42130 -63.67102 37033 ft 471 kts 135°
2026-05-04 23:17 15.37416 -63.62382 37033 ft 471 kts 135°
2026-05-04 23:18 15.32703 -63.57670 37031 ft 470 kts 135°
2026-05-04 23:18 15.27998 -63.52965 37032 ft 470 kts 135°
2026-05-04 23:19 15.23286 -63.48259 37032 ft 470 kts 135°
2026-05-04 23:19 15.18610 -63.43590 37029 ft 470 kts 135°
2026-05-04 23:20 15.13898 -63.38891 37029 ft 471 kts 135°
2026-05-04 23:20 15.09186 -63.34184 37029 ft 471 kts 135°
2026-05-04 23:21 15.04470 -63.29484 37030 ft 471 kts 135°
2026-05-04 23:21 14.99526 -63.25054 37025 ft 472 kts 147°
2026-05-04 23:22 14.93583 -63.22168 37032 ft 473 kts 157°
2026-05-04 23:22 14.87499 -63.19600 37026 ft 473 kts 157°
2026-05-04 23:23 14.81420 -63.16985 37029 ft 473 kts 156°
2026-05-04 23:23 14.75353 -63.14361 37027 ft 473 kts 156°
2026-05-04 23:24 14.69285 -63.11738 37028 ft 473 kts 156°
2026-05-04 23:24 14.63221 -63.09118 37024 ft 472 kts 156°
2026-05-04 23:25 14.57162 -63.06507 37024 ft 472 kts 156°
2026-05-04 23:25 14.51109 -63.03895 37024 ft 472 kts 156°
2026-05-04 23:26 14.45050 -63.01287 37023 ft 471 kts 156°
2026-05-04 23:26 14.38994 -62.98681 37021 ft 472 kts 156°
2026-05-04 23:27 14.32940 -62.96075 37021 ft 472 kts 156°
2026-05-04 23:27 14.26886 -62.93470 37021 ft 471 kts 156°
2026-05-04 23:28 14.20879 -62.90881 37020 ft 471 kts 156°
2026-05-04 23:28 14.14839 -62.88282 37020 ft 470 kts 156°
2026-05-04 23:29 14.08787 -62.85686 37021 ft 471 kts 156°
2026-05-04 23:29 14.02699 -62.83069 37021 ft 471 kts 156°
2026-05-04 23:30 13.96696 -62.80492 37022 ft 470 kts 156°
2026-05-04 23:30 13.90652 -62.77901 37022 ft 471 kts 156°
2026-05-04 23:31 13.84599 -62.75308 37021 ft 471 kts 156°
2026-05-04 23:31 13.78551 -62.72717 37021 ft 471 kts 156°
2026-05-04 23:32 13.72500 -62.70125 37020 ft 472 kts 156°
2026-05-04 23:32 13.66442 -62.67535 37022 ft 471 kts 156°
2026-05-04 23:33 13.60389 -62.64950 37020 ft 474 kts 157°
2026-05-04 23:33 13.54302 -62.62347 37020 ft 474 kts 156°
2026-05-04 23:34 13.48219 -62.59749 37022 ft 473 kts 157°
2026-05-04 23:34 13.42149 -62.57157 37008 ft 471 kts 157°
2026-05-04 23:35 13.40158 -62.56308 36710 ft 467 kts 156°
2026-05-04 23:35 13.37151 -62.55025 35935 ft 469 kts 157°
2026-05-04 23:35 13.34117 -62.53730 35009 ft 475 kts 157°
2026-05-04 23:35 13.31042 -62.52419 34096 ft 481 kts 157°
2026-05-04 23:36 13.27936 -62.51095 33148 ft 485 kts 157°
2026-05-04 23:36 13.24818 -62.49767 32241 ft 487 kts 157°
2026-05-04 23:36 13.21680 -62.48429 31406 ft 488 kts 157°
2026-05-04 23:36 13.18559 -62.47098 30772 ft 484 kts 157°
2026-05-04 23:37 13.15464 -62.45780 30181 ft 480 kts 156°
2026-05-04 23:37 13.12393 -62.44474 29515 ft 475 kts 156°
2026-05-04 23:37 13.09359 -62.43182 28893 ft 469 kts 156°
2026-05-04 23:37 13.06362 -62.41908 28299 ft 463 kts 156°
2026-05-04 23:38 13.03404 -62.40649 27698 ft 458 kts 156°
2026-05-04 23:38 13.00476 -62.39404 27111 ft 453 kts 156°
2026-05-04 23:38 12.97583 -62.38175 26536 ft 447 kts 156°
2026-05-04 23:38 12.94726 -62.36961 26007 ft 442 kts 156°
2026-05-04 23:39 12.91909 -62.35763 25451 ft 436 kts 156°
2026-05-04 23:39 12.89112 -62.34576 24890 ft 432 kts 156°
2026-05-04 23:39 12.86347 -62.33403 24333 ft 429 kts 155°
2026-05-04 23:39 12.83605 -62.32240 23833 ft 424 kts 156°
2026-05-04 23:40 12.80902 -62.31092 23325 ft 417 kts 155°
2026-05-04 23:40 12.78237 -62.29959 22735 ft 412 kts 156°
2026-05-04 23:40 12.75600 -62.28836 22120 ft 409 kts 156°
2026-05-04 23:40 12.72987 -62.27728 21539 ft 405 kts 155°
2026-05-04 23:41 12.70391 -62.26629 20931 ft 402 kts 156°
2026-05-04 23:41 12.67817 -62.25540 20357 ft 399 kts 155°
2026-05-04 23:41 12.65260 -62.24458 19771 ft 396 kts 155°
2026-05-04 23:41 12.62721 -62.23381 19242 ft 393 kts 155°
2026-05-04 23:42 12.60213 -62.22318 18743 ft 389 kts 155°
2026-05-04 23:42 12.57738 -62.21267 18386 ft 380 kts 155°
2026-05-04 23:42 12.55331 -62.20247 18162 ft 368 kts 155°
2026-05-04 23:42 12.53006 -62.19265 17970 ft 355 kts 154°
2026-05-04 23:43 12.50763 -62.18317 17793 ft 343 kts 155°
2026-05-04 23:43 12.48581 -62.17394 17459 ft 337 kts 154°
2026-05-04 23:43 12.46458 -62.16493 17065 ft 333 kts 154°
2026-05-04 23:43 12.44301 -62.15580 16667 ft 329 kts 154°
2026-05-04 23:44 12.42223 -62.14700 16288 ft 325 kts 155°
2026-05-04 23:44 12.40143 -62.13821 15905 ft 322 kts 154°
2026-05-04 23:44 12.38087 -62.12951 15540 ft 318 kts 154°
2026-05-04 23:44 12.36054 -62.12091 15156 ft 315 kts 154°
2026-05-04 23:45 12.34037 -62.11238 14780 ft 312 kts 154°
2026-05-04 23:45 12.32043 -62.10394 14416 ft 309 kts 154°
2026-05-04 23:45 12.30066 -62.09558 14066 ft 306 kts 154°
2026-05-04 23:45 12.28112 -62.08733 13713 ft 302 kts 154°
2026-05-04 23:46 12.26180 -62.07916 13299 ft 300 kts 154°
2026-05-04 23:46 12.24258 -62.07106 12877 ft 298 kts 154°
2026-05-04 23:46 12.22351 -62.06299 12463 ft 296 kts 154°
2026-05-04 23:46 12.20455 -62.05499 12062 ft 294 kts 154°
2026-05-04 23:47 12.18573 -62.04704 11664 ft 292 kts 154°
2026-05-04 23:47 12.16706 -62.03917 11184 ft 290 kts 154°
2026-05-04 23:47 12.14850 -62.03132 10646 ft 288 kts 154°
2026-05-04 23:47 12.13010 -62.02355 10124 ft 285 kts 154°
2026-05-04 23:48 12.11184 -62.01584 9579 ft 283 kts 154°
2026-05-04 23:48 12.09376 -62.00821 9020 ft 280 kts 154°
2026-05-04 23:48 12.07582 -62.00063 8478 ft 277 kts 155°
2026-05-04 23:48 12.05808 -61.99316 7944 ft 275 kts 155°
2026-05-04 23:49 12.04049 -61.98575 7393 ft 273 kts 155°
2026-05-04 23:49 12.02331 -61.97795 6936 ft 266 kts 148°
2026-05-04 23:49 12.01000 -61.96589 6615 ft 251 kts 122°
2026-05-04 23:49 12.00334 -61.94992 6144 ft 244 kts 107°
2026-05-04 23:50 11.99951 -61.93330 5462 ft 230 kts 101°
2026-05-04 23:50 11.99814 -61.91765 4820 ft 216 kts 90°
2026-05-04 23:50 12.00133 -61.90298 4073 ft 211 kts 70°
2026-05-04 23:50 12.00936 -61.89063 3370 ft 207 kts 57°
2026-05-04 23:51 12.01333 -61.87804 3011 ft 173 kts 93°
2026-05-04 23:51 12.00860 -61.86728 2175 ft 169 kts 120°
2026-05-04 23:51 12.00460 -61.85682 1520 ft 154 kts 101°
2026-05-04 23:51 12.00465 -61.84555 911 ft 163 kts 91°
2026-05-04 23:52 12.00441 -61.83462 744 ft 145 kts 92°
2026-05-04 23:52 12.00430 -61.82470 604 ft 136 kts 91°
2026-05-04 23:52 12.00392 -61.81489 400 ft 145 kts 93°
2026-05-04 23:52 12.00403 -61.80440 197 ft 150 kts 91°
2026-05-04 23:53 12.00410 -61.79383 56 ft 145 kts 91°
2026-05-04 23:53 12.00405 -61.78508 47 ft 73 kts 91°
2026-05-04 23:53 12.00406 -61.78137 40 ft 38 kts 96°
2026-05-04 23:53 12.00409 -61.77953 40 ft 12 kts 342°
2026-05-04 23:54 12.00422 -61.77982 39 ft 5 kts 238°
2026-05-04 23:54 12.00408 -61.78110 39 ft 37 kts 266°
2026-05-04 23:54 12.00404 -61.78379 45 ft 39 kts 262°
2026-05-04 23:54 12.00410 -61.78570 47 ft 9 kts 325°
2026-05-04 23:55 12.00458 -61.78588 47 ft 10 kts 354°
2026-05-04 23:55 12.00541 -61.78595 49 ft 14 kts
2026-05-04 23:55 12.00608 -61.78534 51 ft 3 kts
2026-05-04 23:56 12.00644 -61.78532 52 ft 5 kts 359°
2026-05-04 23:56 12.00655 -61.78533 51 ft 0 kts 360°